N0HOT Weather Reports


time (UTC)temp
C
wind
direction
speed
KPH
gust
KPH
rain 1hr
cm
rain 24hr
cm
rain mn
cm
humidity
%
barometer
mb
20260906173116 26 181 0.0 1.6 0.00 0.00 0.00 62 1019.5
20260906172616 26 198 0.0 1.6 0.00 0.00 0.00 63 1019.8
20260906172112 26 70 0.0 0.0 0.00 0.00 0.00 65 1019.5
20260906171611 26 89 0.0 0.0 0.00 0.00 0.00 64 1019.8
20260906171107 25 94 0.0 0.0 0.00 0.00 0.00 65 1019.8
20260906170603 25 94 0.0 0.0 0.00 0.00 0.00 64 1019.8
20260906165558 25 66 0.0 0.0 0.00 0.00 0.00 65 1019.8
20260906165053 25 66 0.0 0.0 0.00 0.00 0.00 65 1019.8
20260906164552 25 66 0.0 0.0 0.00 0.00 0.00 65 1019.8
20260906164048 25 61 0.0 0.0 0.00 0.00 0.00 65 1019.8
20260906163543 25 68 0.0 0.0 0.00 0.00 0.00 65 1019.5
20260906163039 24 68 0.0 0.0 0.00 0.00 0.00 66 1019.8
20260906162536 24 68 0.0 0.0 0.00 0.00 0.00 66 1019.8
20260906162031 24 78 0.0 0.0 0.00 0.00 0.00 67 1019.5
20260906161526 23 72 0.0 0.0 0.00 0.00 0.00 69 1019.8
20260906161025 23 72 0.0 0.0 0.00 0.00 0.00 69 1019.8
20260906160524 23 72 0.0 0.0 0.00 0.00 0.00 70 1019.8
20260906160023 23 72 0.0 0.0 0.00 0.00 0.00 70 1019.5
20260906155520 23 72 0.0 0.0 0.00 0.00 0.00 71 1019.8
20260906155017 23 82 0.0 0.0 0.00 0.00 0.00 71 1019.8
20260906154512 23 82 0.0 0.0 0.00 0.00 0.00 74 1019.8
20260906154011 23 93 0.0 0.0 0.00 0.00 0.00 72 1019.8
20260906153509 23 59 0.0 0.0 0.00 0.00 0.00 71 1020.1
20260906153005 23 59 0.0 0.0 0.00 0.00 0.00 74 1019.8
20260906152459 22 62 0.0 0.0 0.00 0.00 0.00 74 1020.1
20260906151958 22 62 0.0 0.0 0.00 0.00 0.00 73 1019.8
20260906151454 22 66 0.0 0.0 0.00 0.00 0.00 73 1020.1
20260906150949 21 96 0.0 0.0 0.00 0.00 0.00 75 1020.1
20260906150444 21 89 0.0 0.0 0.00 0.00 0.00 76 1020.1
20260906145938 21 89 0.0 0.0 0.00 0.00 0.00 78 1020.1
20260906145438 20 68 0.0 0.0 0.00 0.00 0.00 84 1019.8
20260906144932 20 67 0.0 0.0 0.00 0.00 0.00 85 1019.8
20260906144427 20 68 0.0 0.0 0.00 0.00 0.00 87 1019.8
20260906143922 20 68 0.0 0.0 0.00 0.00 0.00 88 1019.8
20260906143418 20 68 0.0 0.0 0.00 0.00 0.00 88 1019.5
20260906142913 20 68 0.0 0.0 0.00 0.00 0.00 88 1019.5
20260906142407 20 68 0.0 0.0 0.00 0.00 0.00 89 1019.5
20260906141903 20 68 0.0 0.0 0.00 0.00 0.00 89 1019.5
20260906141401 20 68 0.0 0.0 0.00 0.00 0.00 89 1019.5
20260906140856 20 68 0.0 0.0 0.00 0.00 0.00 89 1019.5
20260906140351 19 68 0.0 0.0 0.00 0.00 0.00 89 1019.8
20260906135849 19 68 0.0 0.0 0.00 0.00 0.00 89 1019.5
20260906135349 19 68 0.0 0.0 0.00 0.00 0.00 89 1019.5
20260906134844 19 68 0.0 0.0 0.00 0.00 0.00 89 1019.5
20260906134339 18 68 0.0 0.0 0.00 0.00 0.00 89 1019.8
20260906133835 18 68 0.0 0.0 0.00 0.00 0.00 89 1019.8
20260906133330 18 68 0.0 0.0 0.00 0.00 0.00 89 1019.8
20260906132826 18 68 0.0 0.0 0.00 0.00 0.00 89 1020.1
20260906132320 18 68 0.0 0.0 0.00 0.00 0.00 89 1020.1
20260906131816 18 68 0.0 0.0 0.00 0.00 0.00 89 1020.1
20260906131306 18 68 0.0 0.0 0.00 0.00 0.00 89 1019.8
20260906130801 18 67 0.0 0.0 0.00 0.00 0.00 89 1020.1
20260906130256 18 67 0.0 0.0 0.00 0.00 0.00 89 1019.8
20260906125754 18 67 0.0 0.0 0.00 0.00 0.00 89 1019.8
20260906125253 18 68 0.0 0.0 0.00 0.00 0.00 89 1019.8
20260906124753 18 68 0.0 0.0 0.00 0.00 0.00 89 1019.8
20260906124249 17 67 0.0 0.0 0.00 0.00 0.00 89 1019.8
20260906123747 17 67 0.0 0.0 0.00 0.00 0.00 89 1019.8
20260906123243 17 67 0.0 0.0 0.00 0.00 0.00 89 1019.5
20260906122742 17 67 0.0 0.0 0.00 0.00 0.00 89 1019.5
20260906122238 17 68 0.0 0.0 0.00 0.00 0.00 89 1019.5
20260906121734 17 68 0.0 0.0 0.00 0.00 0.00 89 1019.5
20260906121230 17 68 0.0 0.0 0.00 0.00 0.00 88 1019.5
20260906120725 17 68 0.0 0.0 0.00 0.00 0.00 89 1019.5
20260906120222 17 68 0.0 0.0 0.00 0.00 0.00 88 1019.1
20260906115718 17 68 0.0 0.0 0.00 0.00 0.00 88 1019.5
20260906115213 17 68 0.0 0.0 0.00 0.00 0.00 88 1019.5
20260906114712 17 67 0.0 0.0 0.00 0.00 0.00 88 1019.5
20260906114207 17 68 0.0 0.0 0.00 0.00 0.00 88 1019.5
20260906113702 17 68 0.0 0.0 0.00 0.00 0.00 88 1019.1
20260906113201 17 68 0.0 0.0 0.00 0.00 0.00 88 1019.1
20260906112701 17 67 0.0 0.0 0.00 0.00 0.00 88 1019.1
20260906112158 17 68 0.0 0.0 0.00 0.00 0.00 88 1018.8
20260906111657 17 68 0.0 0.0 0.00 0.00 0.00 88 1018.5
20260906111152 18 68 0.0 0.0 0.00 0.00 0.00 88 1018.8
20260906110647 17 68 0.0 0.0 0.00 0.00 0.00 88 1018.5
20260906110142 17 68 0.0 0.0 0.00 0.00 0.00 88 1018.5
20260906105636 17 68 0.0 0.0 0.00 0.00 0.00 88 1018.5
20260906105133 18 67 0.0 0.0 0.00 0.00 0.00 88 1018.5
20260906104632 18 68 0.0 0.0 0.00 0.00 0.00 88 1018.5
20260906104131 18 68 0.0 0.0 0.00 0.00 0.00 88 1018.5
20260906103629 18 67 0.0 0.0 0.00 0.00 0.00 88 1018.5
20260906103124 18 67 0.0 0.0 0.00 0.00 0.00 88 1018.5
20260906102619 18 67 0.0 0.0 0.00 0.00 0.00 88 1018.5
20260906102108 18 68 0.0 0.0 0.00 0.00 0.00 88 1018.5
20260906101603 18 68 0.0 0.0 0.00 0.00 0.00 88 1018.1
20260906101103 18 68 0.0 0.0 0.00 0.00 0.00 88 1018.1
20260906100558 18 67 0.0 0.0 0.00 0.00 0.00 88 1018.1
20260906100053 18 67 0.0 0.0 0.00 0.00 0.00 88 1018.1
20260906095553 18 68 0.0 0.0 0.00 0.00 0.00 88 1018.1
20260906095049 18 68 0.0 0.0 0.00 0.00 0.00 88 1018.5
20260906094547 18 67 0.0 0.0 0.00 0.00 0.00 88 1018.1
20260906094043 18 67 0.0 0.0 0.00 0.00 0.00 88 1018.5
20260906093539 18 68 0.0 0.0 0.00 0.00 0.00 88 1018.1
20260906093034 18 68 0.0 0.0 0.00 0.00 0.00 88 1018.1
20260906092529 18 68 0.0 0.0 0.00 0.00 0.00 88 1018.1
20260906092024 18 68 0.0 0.0 0.00 0.00 0.00 88 1017.8
20260906091520 18 68 0.0 0.0 0.00 0.00 0.00 88 1017.8
20260906091016 18 68 0.0 0.0 0.00 0.00 0.00 88 1017.8
20260906090516 18 68 0.0 0.0 0.00 0.00 0.00 88 1017.8
20260906090011 18 68 0.0 0.0 0.00 0.00 0.00 88 1017.8
20260906085510 18 68 0.0 0.0 0.00 0.00 0.00 88 1017.8
20260906085009 18 68 0.0 0.0 0.00 0.00 0.00 88 1017.8
20260906084504 18 67 0.0 0.0 0.00 0.00 0.00 88 1018.1
20260906084003 18 68 0.0 0.0 0.00 0.00 0.00 88 1018.1
20260906083459 18 68 0.0 0.0 0.00 0.00 0.00 88 1017.8
20260906082958 18 68 0.0 0.0 0.00 0.00 0.00 88 1017.8
20260906082453 18 68 0.0 0.0 0.00 0.00 0.00 88 1018.1
20260906081949 18 67 0.0 0.0 0.00 0.00 0.00 88 1018.1
20260906081444 18 68 0.0 0.0 0.00 0.00 0.00 88 1018.1
20260906080940 19 68 0.0 0.0 0.00 0.00 0.00 88 1018.1
20260906080437 19 67 0.0 0.0 0.00 0.00 0.00 88 1018.1
20260906075937 19 67 0.0 0.0 0.00 0.00 0.00 88 1018.1
20260906075431 19 68 0.0 0.0 0.00 0.00 0.00 88 1017.8
20260906074926 19 68 0.0 0.0 0.00 0.00 0.00 88 1017.8
20260906074421 19 67 0.0 0.0 0.00 0.00 0.00 88 1017.8
20260906073920 19 68 0.0 0.0 0.00 0.00 0.00 88 1017.8
20260906073415 19 68 0.0 0.0 0.00 0.00 0.00 88 1017.8
20260906072911 19 67 0.0 0.0 0.00 0.00 0.00 88 1017.3
20260906072406 19 67 0.0 0.0 0.00 0.00 0.00 88 1017.8
20260906071901 19 68 0.0 0.0 0.00 0.00 0.00 88 1018.1
20260906071357 19 67 0.0 0.0 0.00 0.00 0.00 88 1017.8
20260906070853 19 68 0.0 0.0 0.00 0.00 0.00 88 1017.8
20260906070349 19 67 0.0 0.0 0.00 0.00 0.00 88 1018.1
20260906065844 19 68 0.0 0.0 0.00 0.00 0.00 88 1018.1
20260906065339 19 67 0.0 0.0 0.00 0.00 0.00 88 1018.1
20260906064834 19 67 0.0 0.0 0.00 0.00 0.00 88 1018.1
20260906064330 19 67 0.0 0.0 0.00 0.00 0.00 88 1018.1
20260906063824 19 67 0.0 0.0 0.00 0.00 0.00 88 1018.1
20260906063320 19 67 0.0 0.0 0.00 0.00 0.00 88 1018.5
20260906062815 19 67 0.0 0.0 0.00 0.00 0.00 88 1018.5
20260906062314 19 67 0.0 0.0 0.00 0.00 0.00 88 1018.5
20260906061810 19 68 0.0 0.0 0.00 0.00 0.00 87 1018.1
20260906061306 20 67 0.0 0.0 0.00 0.00 0.00 87 1018.1
20260906060801 20 67 0.0 0.0 0.00 0.00 0.00 87 1018.5
20260906060259 20 67 0.0 0.0 0.00 0.00 0.00 87 1018.5
20260906055754 20 67 0.0 0.0 0.00 0.00 0.00 87 1018.1
20260906055249 20 67 0.0 0.0 0.00 0.00 0.00 87 1018.1
20260906054745 20 67 0.0 0.0 0.00 0.00 0.00 87 1018.1
20260906054240 20 67 0.0 0.0 0.00 0.00 0.00 87 1018.5
20260906053737 20 67 0.0 0.0 0.00 0.00 0.00 87 1018.1
20260906053232 20 67 0.0 0.0 0.00 0.00 0.00 87 1018.1
20260906052727 20 67 0.0 0.0 0.00 0.00 0.00 87 1018.5
20260906052223 20 67 0.0 0.0 0.00 0.00 0.00 87 1018.1
20260906051720 20 67 0.0 0.0 0.00 0.00 0.00 87 1018.1
20260906051219 20 67 0.0 0.0 0.00 0.00 0.00 87 1018.1
20260906050714 20 68 0.0 0.0 0.00 0.00 0.00 87 1018.1
20260906050210 20 67 0.0 0.0 0.00 0.00 0.00 87 1018.1
20260906045708 20 67 0.0 0.0 0.00 0.00 0.00 87 1018.1
20260906045203 20 67 0.0 0.0 0.00 0.00 0.00 86 1018.1
20260906044659 20 67 0.0 0.0 0.00 0.00 0.00 86 1018.1
20260906044154 20 67 0.0 0.0 0.00 0.00 0.00 86 1018.1
20260906043650 20 67 0.0 0.0 0.00 0.00 0.00 86 1017.8
20260906043145 20 68 0.0 0.0 0.00 0.00 0.00 86 1018.1
20260906042645 20 67 0.0 0.0 0.00 0.00 0.00 86 1018.1
20260906042139 20 67 0.0 0.0 0.00 0.00 0.00 86 1018.1
20260906041629 20 67 0.0 0.0 0.00 0.00 0.00 86 1018.5
20260906041124 20 67 0.0 0.0 0.00 0.00 0.00 85 1018.1
20260906040619 20 67 0.0 0.0 0.00 0.00 0.00 85 1018.1
20260906040115 20 67 0.0 0.0 0.00 0.00 0.00 85 1017.8
20260906035610 20 67 0.0 0.0 0.00 0.00 0.00 85 1018.1
20260906035105 20 67 0.0 0.0 0.00 0.00 0.00 85 1018.1
20260906034600 20 67 0.0 0.0 0.00 0.00 0.00 85 1018.1
20260906034054 20 67 0.0 0.0 0.00 0.00 0.00 85 1018.1
20260906033549 20 67 0.0 0.0 0.00 0.00 0.00 84 1017.8
20260906033045 20 67 0.0 0.0 0.00 0.00 0.00 84 1018.1
20260906032541 20 67 0.0 0.0 0.00 0.00 0.00 83 1017.8
20260906032036 20 67 0.0 0.0 0.00 0.00 0.00 83 1017.3
20260906031532 20 67 0.0 0.0 0.00 0.00 0.00 83 1017.3
20260906031028 21 67 0.0 0.0 0.00 0.00 0.00 83 1017.3
20260906030527 21 67 0.0 0.0 0.00 0.00 0.00 82 1017.3
20260906030026 21 67 0.0 0.0 0.00 0.00 0.00 82 1017.3
20260906025526 21 67 0.0 0.0 0.00 0.00 0.00 82 1017.3
20260906025024 21 67 0.0 0.0 0.00 0.00 0.00 81 1017.3
20260906024520 21 67 0.0 0.0 0.00 0.00 0.00 81 1017.3
20260906024020 21 67 0.0 0.0 0.00 0.00 0.00 81 1017.0
20260906023516 21 67 0.0 0.0 0.00 0.00 0.00 80 1017.0
20260906023011 21 67 0.0 0.0 0.00 0.00 0.00 80 1017.0
20260906022506 21 67 0.0 0.0 0.00 0.00 0.00 80 1017.0
20260906022001 21 67 0.0 0.0 0.00 0.00 0.00 79 1016.7
20260906021456 21 67 0.0 0.0 0.00 0.00 0.00 79 1017.0
20260906020950 21 67 0.0 0.0 0.00 0.00 0.00 78 1016.7
20260906020445 22 67 0.0 0.0 0.00 0.00 0.00 78 1016.3
20260906015944 22 67 0.0 0.0 0.00 0.00 0.00 78 1016.3
20260906015444 22 67 0.0 0.0 0.00 0.00 0.00 78 1016.3
20260906014944 22 67 0.0 0.0 0.00 0.00 0.00 78 1016.3
20260906014438 22 67 0.0 0.0 0.00 0.00 0.00 77 1016.3
20260906013934 22 67 0.0 0.0 0.00 0.00 0.00 77 1016.0
20260906013429 22 67 0.0 0.0 0.00 0.00 0.00 77 1015.6
20260906012925 22 67 0.0 0.0 0.00 0.00 0.00 77 1015.6
20260906012425 22 67 0.0 1.6 0.00 0.00 0.00 77 1015.6
20260906011924 22 67 1.6 1.6 0.00 0.00 0.00 76 1015.6
20260906011420 22 67 0.0 0.0 0.00 0.00 0.00 76 1015.3
20260906010915 22 67 0.0 0.0 0.00 0.00 0.00 76 1015.6
20260906010411 22 67 0.0 0.0 0.00 0.00 0.00 76 1015.6
20260906005907 23 67 0.0 1.6 0.00 0.00 0.00 76 1015.6
20260906005406 23 68 0.0 0.0 0.00 0.00 0.00 76 1015.3
20260906004904 23 67 0.0 0.0 0.00 0.00 0.00 76 1015.6
20260906004359 23 67 1.6 1.6 0.00 0.00 0.00 76 1015.6
20260906003854 23 68 0.0 0.0 0.00 0.00 0.00 73 1015.6
20260906003350 23 68 0.0 0.0 0.00 0.00 0.00 73 1015.3
20260906002845 23 68 0.0 0.0 0.00 0.00 0.00 72 1015.3
20260906002344 23 68 0.0 0.0 0.00 0.00 0.00 72 1015.3
20260906001840 23 68 0.0 0.0 0.00 0.00 0.00 73 1015.3
20260906001336 23 68 0.0 0.0 0.00 0.00 0.00 72 1015.3
20260906000831 23 68 0.0 0.0 0.00 0.00 0.00 72 1015.3
20260906000326 23 68 0.0 0.0 0.00 0.00 0.00 72 1015.3
20260905235826 24 68 0.0 0.0 0.00 0.00 0.00 72 1015.3
20260905235320 24 68 0.0 0.0 0.00 0.00 0.00 72 1015.3
20260905234815 24 68 1.6 1.6 0.00 0.00 0.00 72 1015.3
20260905234310 24 68 0.0 0.0 0.00 0.00 0.00 72 1015.3
20260905233805 24 68 0.0 0.0 0.00 0.00 0.00 72 1015.3
20260905233300 24 68 0.0 0.0 0.00 0.00 0.00 71 1015.3
20260905232759 25 68 0.0 0.0 0.00 0.00 0.00 71 1015.3
20260905232255 25 68 1.6 1.6 0.00 0.00 0.00 70 1015.0
20260905231751 25 68 1.6 1.6 0.00 0.00 0.00 70 1015.0
20260905231246 25 68 1.6 1.6 0.00 0.00 0.00 70 1015.0
20260905230742 25 68 1.6 1.6 0.00 0.00 0.00 70 1015.0
20260905230240 25 68 1.6 1.6 0.00 0.00 0.00 71 1015.3
20260905225739 25 68 1.6 1.6 0.00 0.00 0.00 71 1015.3
20260905225235 25 68 0.0 0.0 0.00 0.00 0.00 71 1015.3
20260905224734 25 68 0.0 1.6 0.00 0.00 0.00 71 1015.6
20260905224230 25 68 0.0 0.0 0.00 0.00 0.00 72 1015.6
20260905223726 25 68 0.0 0.0 0.00 0.00 0.00 72 1015.6
20260905223222 25 68 0.0 0.0 0.00 0.00 0.00 71 1015.6
20260905222718 25 68 0.0 1.6 0.00 0.00 0.00 72 1015.6
20260905222217 26 68 0.0 0.0 0.00 0.00 0.00 71 1015.6
20260905221713 26 68 1.6 1.6 0.00 0.00 0.00 70 1015.3
20260905221210 26 68 1.6 1.6 0.00 0.00 0.00 70 1015.3
20260905220705 26 68 1.6 1.6 0.00 0.00 0.00 69 1015.3
20260905220201 26 68 0.0 1.6 0.00 0.00 0.00 69 1015.3
20260905215700 26 53 3.2 3.2 0.00 0.00 0.00 69 1015.0
20260905215156 26 53 1.6 1.6 0.00 0.00 0.00 68 1015.3
20260905214652 26 53 0.0 0.0 0.00 0.00 0.00 68 1015.3
20260905214147 26 53 0.0 0.0 0.00 0.00 0.00 68 1015.3
20260905213642 26 53 0.0 0.0 0.00 0.00 0.00 68 1015.6
20260905213138 27 53 0.0 1.6 0.00 0.00 0.00 67 1015.3
20260905212633 27 45 0.0 0.0 0.00 0.00 0.00 68 1015.3
20260905212132 27 45 0.0 1.6 0.00 0.00 0.00 67 1015.3
20260905211627 27 45 0.0 0.0 0.00 0.00 0.00 66 1015.6
20260905211123 27 45 0.0 0.0 0.00 0.00 0.00 65 1015.6
20260905210619 27 45 0.0 0.0 0.00 0.00 0.00 67 1015.6
20260905210113 27 45 0.0 0.0 0.00 0.00 0.00 65 1015.6
20260905205613 28 45 0.0 0.0 0.00 0.00 0.00 64 1015.6
20260905205113 28 37 0.0 0.0 0.00 0.00 0.00 66 1015.6
20260905204612 28 37 0.0 0.0 0.00 0.00 0.00 63 1016.0
20260905204108 28 37 0.0 0.0 0.00 0.00 0.00 65 1016.0
20260905203602 29 37 0.0 1.6 0.00 0.00 0.00 63 1015.6
20260905203057 29 26 0.0 0.0 0.00 0.00 0.00 62 1016.0
20260905202048 29 57 0.0 0.0 0.00 0.00 0.00 61 1016.0
20260905201544 28 344 0.0 0.0 0.00 0.00 0.00 59 1016.0
20260905201043 28 81 0.0 0.0 0.00 0.00 0.00 62 1016.0
20260905200538 28 100 0.0 0.0 0.00 0.00 0.00 60 1015.6
20260905200038 28 80 0.0 0.0 0.00 0.00 0.00 59 1016.3
20260905195532 28 64 0.0 0.0 0.00 0.00 0.00 61 1016.0
20260905195027 28 93 1.6 1.6 0.00 0.00 0.00 61 1016.0
20260905194522 28 229 0.0 1.6 0.00 0.00 0.00 61 1016.0
20260905194022 27 178 1.6 1.6 0.00 0.00 0.00 62 1016.3
20260905193522 27 340 1.6 3.2 0.00 0.00 0.00 62 1016.3
20260905193017 27 355 0.0 1.6 0.00 0.00 0.00 62 1016.3
20260905192512 27 206 1.6 1.6 0.00 0.00 0.00 63 1016.7
20260905192009 27 321 0.0 0.0 0.00 0.00 0.00 64 1016.3
20260905191507 27 265 0.0 0.0 0.00 0.00 0.00 67 1016.7
20260905191007 26 275 1.6 1.6 0.00 0.00 0.00 68 1016.7
20260905190504 26 343 0.0 1.6 0.00 0.00 0.00 68 1016.7
20260905190004 26 304 1.6 1.6 0.00 0.00 0.00 65 1016.7
20260905185458 26 62 0.0 0.0 0.00 0.00 0.00 67 1016.7
20260905184957 26 1 0.0 1.6 0.00 0.00 0.00 68 1016.3
20260905184452 26 336 0.0 0.0 0.00 0.00 0.00 68 1017.0
20260905183951 26 342 0.0 1.6 0.00 0.00 0.00 69 1016.7
20260905183451 26 336 1.6 1.6 0.00 0.00 0.00 68 1016.7
20260905182946 26 357 1.6 1.6 0.00 0.00 0.00 67 1016.7
20260905182445 26 11 1.6 1.6 0.00 0.00 0.00 65 1016.7
20260905181941 26 344 1.6 3.2 0.00 0.00 0.00 65 1016.7
20260905181441 26 85 0.0 0.0 0.00 0.00 0.00 67 1016.7
20260905180940 26 87 0.0 0.0 0.00 0.00 0.00 70 1016.7
20260905180435 26 88 0.0 1.6 0.00 0.00 0.00 70 1016.7
20260905175931 26 88 0.0 0.0 0.00 0.00 0.00 72 1016.7
20260905175429 26 100 0.0 0.0 0.00 0.00 0.00 72 1016.7
20260905174925 26 49 0.0 0.0 0.00 0.00 0.00 72 1016.7
20260905174421 26 49 0.0 1.6 0.00 0.00 0.00 70 1016.7
20260905173916 25 49 0.0 0.0 0.00 0.00 0.00 74 1016.7
20260905173413 25 49 0.0 0.0 0.00 0.00 0.00 73 1016.7